Change the Weather History Date:

Thursday, August 29, 2013

  Actual Average Record
Temperature  
Mean Temperature 80 °F 77 °F  
Max Temperature 87 °F 87 °F 100 °F (1948)
Min Temperature 72 °F 67 °F 49 °F (1986)
Degree Days  
Heating Degree Days 0 0  
Month to date heating degree days 0 0  
Since 1 June heating degree days 0 4  
Since 1 July heating degree days 0 0  
Cooling Degree Days 15 12  
Month to date cooling degree days 325 396  
Year to date cooling degree days 1280 1418  
Since 1 June cooling degree days 1102 1209  
Growing Degree Days 31 (Base 50)    
Moisture  
Dew Point 71 °F    
Average Humidity 71    
Maximum Humidity 87    
Minimum Humidity 55    
Precipitation  
Precipitation 0.00 in 0.15 in 2.25 in (1890)
Month to date precipitation 4.88 3.99  
Year to date precipitation 37.47 29.27  
Sea Level Pressure  
Sea Level Pressure 29.92 in    
Wind  
Wind Speed 7 mph (NE)    
Max Wind Speed 15 mph    
Max Gust Speed 20 mph    
Visibility 9 miles    
Events      
T = Trace of Precipitation, MM = Missing Value Source: NWS Daily Summary

Daily Weather History Graph

Daily Weather History Graph

Search for Another Location

Airport or City:

Trip Planner

Search our weather history database for the weather conditions in past years. The results will help you decide how hot, cold, wet, or windy it might be!

Date:

Astronomy

Aug. 29, 2013 Rise Set
Actual Time 6:44 AM EDT 7:46 PM EDT
Civil Twilight 6:18 AM EDT 8:12 PM EDT
Nautical Twilight 5:47 AM EDT 8:43 PM EDT
Astronomical Twilight 5:14 AM EDT 9:16 PM EDT
Moon 12:40 AM EDT (8/29) 3:07 PM EDT (8/29)
Length of Visible Light 13h 54m
Length of Day
13h 01m
Last Quarter, 38% of the Moon is Illuminated
Aug 29
Last Quarter
Sep 5
New
Sep 12
First Quarter
Sep 19
Full
Sep 26
Last Quarter

Hourly Weather History & Observations

Time (EDT) Temp. Heat Index Dew Point Humidity Pressure Visibility Wind Dir Wind Speed Gust Speed Precip Events Conditions
12:51 AM 78.1 °F - 73.0 °F 84% 29.87 in 7.0 mi WSW 8.1 mph - N/A   Mostly Cloudy
1:51 AM 78.1 °F - 72.0 °F 81% 29.86 in 7.0 mi WSW 8.1 mph - N/A   Mostly Cloudy
2:51 AM 77.0 °F - 72.0 °F 84% 29.85 in 7.0 mi WSW 6.9 mph - N/A   Mostly Cloudy
3:51 AM 77.0 °F - 72.0 °F 84% 29.85 in 7.0 mi West 4.6 mph - N/A   Mostly Cloudy
4:51 AM 75.9 °F - 72.0 °F 87% 29.84 in 7.0 mi West 4.6 mph - N/A   Scattered Clouds
5:51 AM 75.9 °F - 71.1 °F 85% 29.86 in 7.0 mi Calm Calm - N/A   Mostly Cloudy
6:51 AM 75.9 °F - 71.1 °F 85% 29.87 in 7.0 mi Calm Calm - N/A   Scattered Clouds
7:51 AM 75.9 °F - 72.0 °F 87% 29.90 in 6.0 mi Calm Calm - N/A   Mostly Cloudy
8:51 AM 79.0 °F - 71.1 °F 77% 29.91 in 8.0 mi North 6.9 mph - N/A   Scattered Clouds
9:51 AM 80.1 °F 83.8 °F 72.0 °F 76% 29.92 in 8.0 mi NE 11.5 mph - N/A   Scattered Clouds
10:51 AM 82.0 °F 86.3 °F 71.1 °F 69% 29.93 in 9.0 mi NE 9.2 mph - N/A   Mostly Cloudy
11:51 AM 80.1 °F 83.6 °F 71.1 °F 74% 29.94 in 9.0 mi NNE 11.5 mph 17.3 mph N/A   Mostly Cloudy
12:51 PM 82.0 °F 86.7 °F 72.0 °F 71% 29.94 in 9.0 mi NNE 8.1 mph - N/A   Mostly Cloudy
1:51 PM 82.9 °F 87.5 °F 71.1 °F 67% 29.94 in 10.0 mi Variable 6.9 mph - N/A   Scattered Clouds
2:51 PM 84.9 °F 89.4 °F 70.0 °F 61% 29.93 in 10.0 mi NE 6.9 mph - N/A   Scattered Clouds
3:51 PM 84.9 °F 89.4 °F 70.0 °F 61% 29.92 in 10.0 mi NE 11.5 mph - N/A   Scattered Clouds
4:51 PM 87.1 °F 92.0 °F 70.0 °F 57% 29.92 in 10.0 mi NNE 10.4 mph - N/A   Scattered Clouds
5:51 PM 84.9 °F 89.4 °F 70.0 °F 61% 29.92 in 10.0 mi NE 11.5 mph - N/A   Scattered Clouds
6:51 PM 82.9 °F 86.5 °F 69.1 °F 63% 29.93 in 10.0 mi NE 6.9 mph - N/A   Scattered Clouds
7:51 PM 80.1 °F 82.9 °F 69.1 °F 69% 29.95 in 10.0 mi NE 9.2 mph - N/A   Mostly Cloudy
8:51 PM 77.0 °F - 70.0 °F 79% 29.98 in 10.0 mi ENE 8.1 mph - N/A   Mostly Cloudy
9:51 PM 75.9 °F - 69.1 °F 79% 30.00 in 10.0 mi East 8.1 mph - N/A   Partly Cloudy
10:51 PM 75.0 °F - 69.1 °F 82% 30.00 in 10.0 mi East 6.9 mph - N/A   Scattered Clouds
11:51 PM 73.0 °F - 69.1 °F 87% 30.02 in 10.0 mi ENE 4.6 mph - N/A   Partly Cloudy